Regional Weather Roundup
Issued by NWS

Home | Current Version | Previous Version | Graphics & Text | Print | Product List | Glossary Off
Versions: 1 2 3 4 5 6 7 8 9 10 11 12 13 14 15 16 17 18 19 20 21 22 23 24 25 26 27 28 29 30 31 32 33 34 35 36 37 38 39 40 41 42 43 44 45 46 47 48 49 50

866
ASUS43 KMPX 270601
RWRMN
WEATHER ROUNDUP FOR MINNESOTA
NATIONAL WEATHER SERVICE TWIN CITIES/CHANHASSEN MN
100 AM CDT TUE JUN 27 2017


NOTE: "FAIR" INDICATES FEW OR NO CLOUDS BELOW 12,000 FEET WITH NO
SIGNIFICANT WEATHER AND/OR OBSTRUCTIONS TO VISIBILITY. N/A MEANS
CURRENT SKY AND/OR WEATHER CONDITIONS ARE NOT AVAILABLE.

MNZ060>063-068>070-270700-
   Twin Cities Metro

CITY           SKY/WX    TMP DP  RH WIND       PRES   REMARKS
TWIN CITIES    PTCLDY    59  46  62 S3        30.11S
6HR MIN TEMP:  59; 6HR MAX TEMP:  71;

ST PAUL        PTCLDY    54  48  80 CALM      30.11S
CRYSTAL        CLEAR     52  45  77 CALM      30.09S
BLAINE         CLEAR     52  46  82 CALM      30.10S
LAKEVILLE      PTCLDY    54  46  76 CALM      30.12S
EDEN PRAIRIE   CLEAR     57  47  69 SW5       30.10S
6HR MIN TEMP:  57; 6HR MAX TEMP:  71;

SOUTH ST PAUL  PTCLDY    57  45  65 SW3       30.11S
LAKE ELMO      FAIR      50  48  93 CALM      30.11S
$$
MNZ001>005-007-008-013>017-022>024-027-028-270700-
   Northwest Minnesota

CITY           SKY/WX    TMP DP  RH WIND       PRES   REMARKS
BEMIDJI        CLEAR     51  44  77 CALM      30.05F
HALLOCK        CLEAR     48  43  81 S8        29.99S
ROSEAU         CLEAR     48  43  81 S5        30.01S
WARROAD        CLEAR     52  46  82 S5        30.01F
CROOKSTON      CLEAR     48  45  87 SE7       30.03F
FOSSTON        CLEAR     46  43  87 S6        30.05F
DETROIT LAKES  CLEAR     54  50  87 S5        30.08F
MOORHEAD       CLEAR     57  39  51 S3        30.06F
PARK RAPIDS    CLEAR     50  42  74 CALM      30.08S
MAHNOMEN       FAIR      52  43  71 S8        30.05F
$$
MNZ006-009>011-018-025>026-270700-
   North Central Minnesota

CITY           SKY/WX    TMP DP  RH WIND       PRES   REMARKS
BAUDETTE       CLEAR     49  46  90 SW3       30.01F
FLAG ISLAND    CLEAR     61  43  51 W8        29.98F
INTL FALLS     CLEAR     43  41  93 CALM      30.01F
6HR MIN TEMP:  43; 6HR MAX TEMP:  69;

WASKISH        CLEAR     50  48  93 CALM      30.03F FOG
BIG FORK       CLEAR     45  43  93 CALM      30.05S FOG
LONGVILLE      CLEAR     45  45 100 CALM      30.07S
GRAND RAPIDS   CLEAR     49  45  86 CALM      30.08S
CRANE LAKE     CLEAR     45  43  93 CALM      30.04S
ORR            CLEAR     46  43  87 CALM      30.01F
COOK           CLEAR     46  45  93 CALM      30.04S
WALKER         FAIR      48  42  81 SW3       30.06F
$$
MNZ012-019>021-037-270700-
   Northeast Minnesota

CITY           SKY/WX    TMP DP  RH WIND       PRES   REMARKS
DULUTH         CLEAR     53  45  74 W8        30.04S
6HR MIN TEMP:  51; 6HR MAX TEMP:  63; 6HR PCP: TRACE;

ELY            CLEAR     48  46  93 CALM      30.03S
HIBBING        CLEAR     42  42 100 CALM      30.05R
EVELETH        CLEAR     46  44  91 CALM      30.05S
DULUTH HARBOR  PTCLDY    57  52  82 S7        30.04S
TWO HARBORS    CLEAR     54  48  82 NW3       30.01F
SILVER BAY     CLEAR     54  48  82 CALM      30.01S
GRAND MARAIS     N/A     55  48  77 VRB3      29.99S
G MARAIS ARPRT CLEAR     48  43  81 W3        30.02S
$$
MNZ029>031-032-039>041-046>048-054>057-064-270700-
   West Central Minnesota

CITY           SKY/WX    TMP DP  RH WIND       PRES   REMARKS
FERGUS FALLS   CLEAR     55  45  67 S5        30.06F
WHEATON        CLEAR     57  43  58 S8        30.11S
MORRIS         CLEAR     54  43  66 S6        30.10S
ALEXANDRIA     CLEAR     53  42  66 SW7       30.12S
ELBOW LAKE     FAIR      51  45  81 S8        30.10F
WADENA         CLEAR     48  43  81 CALM      30.09S
GLENWOOD       CLEAR     52  46  82 SW6       30.12S
APPLETON       CLEAR     52  48  87 CALM      30.11S
BENSON         CLEAR     48  45  87 CALM      30.13S
ORTONVILLE     CLEAR     55  39  54 SW3       30.11S
MADISON        CLEAR     57  45  62 SW5       30.12S
WILLMAR        FAIR      55  45  67 CALM      30.13S
$$
MNZ033>034-036-042>043-049>051-058-059-270700-
   Central Minnesota

CITY           SKY/WX    TMP DP  RH WIND       PRES   REMARKS
ST CLOUD       CLEAR     48  46  93 CALM      30.10S
6HR MIN TEMP:  48; 6HR MAX TEMP:  70;

SAUK CENTRE    FAIR      48  43  81 CALM      30.11S
PAYNESVILLE    CLEAR     47  42  84 CALM      30.11F
AITKIN         CLEAR     43  41  93 CALM      30.06F
PINE RIVER     CLEAR     45  43  93 CALM      30.11S
BRAINERD       CLEAR     46  43  89 S3        30.09S
STAPLES        CLEAR     48  43  81 CALM      30.09S
LONG PRAIRIE   FAIR      50  45  81 S3        30.11S
LITTLE FALLS   CLEAR     45  43  93 CALM      30.10S
LITCHFIELD     CLEAR     55  48  76 CALM      30.12S
BUFFALO        CLEAR     54  46  75 CALM      30.12S
MAPLE LAKE     CLEAR     50  48  92 CALM      30.12S
HUTCHINSON     CLEAR     52  47  85 CALM      30.13S
$$
MNZ037-044-045-052-053-270700-
   East Central Minnesota

CITY           SKY/WX    TMP DP  RH WIND       PRES   REMARKS
PRINCETON      CLEAR     46  46 100 CALM      30.10S
MORA           CLEAR     48  45  87 CALM      30.10S
CAMBRIDGE      CLEAR     52  43  71 CALM      30.08S
RUSH CITY      MOCLDY    50  45  81 SW3       30.09S
MOOSE LAKE     CLEAR     46  43  87 SW3       30.05S
HINCKLEY       FAIR      50  46  87 CALM      30.08S
CLOQUET        CLEAR     52  43  71 W6        30.05F
MCGREGOR       CLEAR     54  45  71 CALM      30.07F
$$
MNZ071>073-080-081-089-090-097-098-270700-
   Southwest Minnesota

CITY           SKY/WX    TMP DP  RH WIND       PRES   REMARKS
MONTEVIDEO     CLEAR     54  43  66 SW3       30.13R
GRANITE FALLS  CLEAR     51  46  81 S3        30.14S
CANBY          CLEAR     50  44  81 CALM      30.14S
MARSHALL       CLEAR     52  45  77 CALM      30.14S
REDWOOD FALLS  CLEAR     54  42  64 SW3       30.13S
OLIVIA         CLEAR     54  43  66 CALM      30.12S
PIPESTONE      CLEAR     55  39  54 CALM      30.14S
WINDOM         CLEAR     52  45  76 CALM      30.14F
WORTHINGTON    CLEAR     51  45  79 S3        30.16S
JACKSON        CLEAR     50  43  76 CALM      30.15S
TRACY          CLEAR     56  43  61 SW5       30.14S
SLAYTON        CLEAR     52  43  71 S5        30.16R
$$
MNZ065>067-074>077-082>085-091>093-270700-
   South Central Minnesota

CITY           SKY/WX    TMP DP  RH WIND       PRES   REMARKS
MANKATO        CLEAR     58  43  57 SW5       30.13S
NEW ULM        CLEAR     52  43  71 CALM      30.13S
ST JAMES       CLEAR     54  45  71 CALM      30.14F
FAIRMONT       CLEAR     53  46  77 CALM      30.14F
GLENCOE        CLEAR     54  50  87 CALM      30.12S
FARIBAULT      PTCLDY    50  48  93 CALM      30.13S
OWATONNA       PTCLDY    54  45  71 S3        30.13F
WASECA         PTCLDY    50  45  81 CALM      30.14F
ALBERT LEA     PTCLDY    52  48  87 CALM      30.14F
$$
MNZ078>079-086>088-094>096-270700-
   Southeast Minnesota

CITY           SKY/WX    TMP DP  RH WIND       PRES   REMARKS
ROCHESTER      CLEAR     51  46  83 SW7       30.14S
6HR MIN TEMP:  51; 6HR MAX TEMP:  67;

RED WING       CLEAR     48  46  93 CALM      30.11S
STANTON        CLEAR     51  48  89 SW3       30.11S
DODGE CENTER   CLEAR     50  45  81 SW3       30.14S
WINONA         CLEAR     52  48  87 CALM      30.13S
AUSTIN         CLEAR     52  46  82 CALM      30.14S
PRESTON        CLEAR     51  45  80 W3        30.14S
$$
ABBREVIATIONS USED IN REMARKS
   TC - TEMPERATURES IN CELSIUS
  WCI - WIND CHILL INDEX
   HX - HEAT INDEX
  VSB - VISIBILITY
$$




USA.gov is the U.S. government's official web portal to all federal, state and local government web resources and services.